When you browse on this site, cookies collect data to enhance your experience and personalize the content and advertising you see.
Visit our Privacy Policy to learn more. By continuing to use the site, you agree to this use of cookies and data.

Hourly Weather Saint-Priest

Today, 9 July, Thursday

Time Temperature Precipitation Wind Pressure Humidity
00:00 +19°C° 0 mm 1 mps 746 mmHg 81%
01:00 +19°C° 0 mm 1 mps 745 mmHg 83%
02:00 +19°C° 0 mm 1 mps 745 mmHg 85%
03:00 +18°C° 0 mm 1 mps 745 mmHg 87%
04:00 +17°C° 0 mm 0 mps 745 mmHg 85%
05:00 +18°C° 0 mm 0 mps 745 mmHg 82%
06:00 +19°C° 0 mm 0 mps 745 mmHg 79%
07:00 +21°C° 0 mm 0 mps 745 mmHg 72%
08:00 +23°C° 0 mm 0 mps 745 mmHg 64%
09:00 +26°C° 0 mm 0 mps 745 mmHg 57%
10:00 +27°C° 0 mm 0 mps 745 mmHg 51%
11:00 +31°C° 0 mm 1 mps 744 mmHg 45%
12:00 +33°C° 0 mm 1 mps 744 mmHg 40%
13:00 +33°C° 0 mm 1 mps 744 mmHg 38%
14:00 +33°C° 0 mm 1 mps 744 mmHg 36%
15:00 +34°C° 0 mm 1 mps 743 mmHg 34%
16:00 +33°C° 0 mm 1 mps 743 mmHg 40%
17:00 +32°C° 0 mm 1 mps 743 mmHg 45%
18:00 +31°C° 0 mm 1 mps 743 mmHg 51%
19:00 +29°C° 0 mm 1 mps 743 mmHg 53%
20:00 +27°C° 0 mm 1 mps 744 mmHg 54%
21:00 +25°C° 0 mm 1 mps 744 mmHg 56%
22:00 +24°C° 0 mm 1 mps 744 mmHg 59%
23:00 +24°C° 0 mm 1 mps 744 mmHg 62%

Tomorrow, 10 July, Friday

Time Temperature Precipitation Wind Pressure Humidity
00:00 +23°C° 0 mm 1 mps 744 mmHg 65%
01:00 +22°C° 0 mm 1 mps 743 mmHg 68%
02:00 +21°C° 0 mm 1 mps 743 mmHg 72%
03:00 +21°C° 0 mm 1 mps 743 mmHg 75%
04:00 +22°C° 0 mm 1 mps 743 mmHg 74%
05:00 +22°C° 0 mm 1 mps 743 mmHg 72%
06:00 +23°C° 0 mm 1 mps 743 mmHg 71%
07:00 +24°C° 0.3 mm 1 mps 743 mmHg 68%
08:00 +26°C° 0.3 mm 1 mps 743 mmHg 66%
09:00 +27°C° 0.3 mm 1 mps 743 mmHg 64%
10:00 +28°C° 0.1 mm 1 mps 743 mmHg 61%
11:00 +29°C° 0.1 mm 2 mps 743 mmHg 58%
12:00 +30°C° 0.1 mm 2 mps 742 mmHg 55%
13:00 +29°C° 1.3 mm 2 mps 742 mmHg 60%
14:00 +29°C° 1.3 mm 2 mps 742 mmHg 64%
15:00 +28°C° 1.3 mm 3 mps 742 mmHg 69%
16:00 +27°C° 2.7 mm 2 mps 742 mmHg 74%
17:00 +25°C° 2.7 mm 2 mps 743 mmHg 79%
18:00 +24°C° 2.7 mm 2 mps 743 mmHg 85%
19:00 +23°C° 0.5 mm 2 mps 743 mmHg 85%
20:00 +21°C° 0.5 mm 2 mps 744 mmHg 85%
21:00 +20°C° 0.5 mm 2 mps 745 mmHg 85%
22:00 +19°C° 0 mm 2 mps 745 mmHg 85%
23:00 +19°C° 0 mm 3 mps 745 mmHg 86%

Day after tomorrow, 11 July, Saturday

Time Temperature Precipitation Wind Pressure Humidity
00:00 +18°C° 0 mm 3 mps 745 mmHg 86%
01:00 +18°C° 0 mm 3 mps 745 mmHg 88%
02:00 +17°C° 0 mm 3 mps 745 mmHg 89%
03:00 +17°C° 0 mm 3 mps 745 mmHg 90%
04:00 +17°C° 0 mm 3 mps 745 mmHg 89%
05:00 +17°C° 0 mm 3 mps 745 mmHg 88%
06:00 +17°C° 0 mm 4 mps 745 mmHg 88%
07:00 +18°C° 0 mm 4 mps 746 mmHg 80%
08:00 +19°C° 0 mm 5 mps 746 mmHg 72%
09:00 +21°C° 0 mm 5 mps 746 mmHg 64%
10:00 +22°C° 0 mm 5 mps 746 mmHg 58%
11:00 +22°C° 0 mm 6 mps 746 mmHg 52%
12:00 +23°C° 0 mm 6 mps 746 mmHg 47%
13:00 +24°C° 0 mm 6 mps 746 mmHg 44%
14:00 +24°C° 0 mm 6 mps 746 mmHg 42%
15:00 +24°C° 0 mm 6 mps 746 mmHg 40%
16:00 +23°C° 0 mm 6 mps 746 mmHg 44%
17:00 +22°C° 0 mm 5 mps 746 mmHg 48%
18:00 +21°C° 0 mm 5 mps 746 mmHg 51%
19:00 +19°C° 0 mm 5 mps 746 mmHg 55%
20:00 +18°C° 0 mm 4 mps 747 mmHg 59%
21:00 +17°C° 0 mm 4 mps 747 mmHg 63%
22:00 +15°C° 0 mm 4 mps 747 mmHg 67%
23:00 +14°C° 0 mm 3 mps 747 mmHg 71%

12 July, Sunday

Time Temperature Precipitation Wind Pressure Humidity
00:00 +13°C° 0 mm 3 mps 747 mmHg 75%
01:00 +13°C° 0 mm 3 mps 747 mmHg 78%
02:00 +13°C° 0 mm 2 mps 747 mmHg 81%
03:00 +12°C° 0 mm 2 mps 746 mmHg 83%
04:00 +13°C° 0 mm 2 mps 746 mmHg 81%
05:00 +14°C° 0 mm 2 mps 747 mmHg 79%
06:00 +14°C° 0 mm 2 mps 747 mmHg 78%
07:00 +16°C° 0 mm 2 mps 747 mmHg 71%
08:00 +18°C° 0 mm 2 mps 746 mmHg 65%
09:00 +20°C° 0 mm 2 mps 746 mmHg 59%
10:00 +23°C° 0 mm 2 mps 746 mmHg 55%
11:00 +24°C° 0 mm 3 mps 746 mmHg 51%
12:00 +26°C° 0 mm 3 mps 746 mmHg 47%
13:00 +26°C° 0 mm 3 mps 746 mmHg 45%
14:00 +27°C° 0 mm 3 mps 746 mmHg 44%
15:00 +27°C° 0 mm 3 mps 746 mmHg 43%
16:00 +26°C° 0 mm 3 mps 746 mmHg 47%
17:00 +25°C° 0 mm 3 mps 746 mmHg 51%
18:00 +24°C° 0 mm 3 mps 746 mmHg 55%
19:00 +23°C° 0 mm 2 mps 746 mmHg 59%
20:00 +20°C° 0 mm 2 mps 746 mmHg 63%
21:00 +19°C° 0 mm 1 mps 746 mmHg 68%
22:00 +18°C° 0 mm 1 mps 746 mmHg 71%
23:00 +16°C° 0 mm 1 mps 746 mmHg 74%

13 July, Monday

Time Temperature Precipitation Wind Pressure Humidity
00:00 +16°C° 0 mm 1 mps 746 mmHg 77%
01:00 +15°C° 0 mm 1 mps 745 mmHg 79%
02:00 +14°C° 0 mm 0 mps 745 mmHg 81%
03:00 +13°C° 0 mm 0 mps 745 mmHg 83%
04:00 +14°C° 0 mm 0 mps 745 mmHg 80%
05:00 +15°C° 0 mm 0 mps 745 mmHg 77%
06:00 +16°C° 0 mm 0 mps 745 mmHg 75%
07:00 +19°C° 0 mm 0 mps 744 mmHg 68%
08:00 +21°C° 0 mm 0 mps 744 mmHg 61%
09:00 +23°C° 0 mm 0 mps 744 mmHg 55%
10:00 +27°C° 0 mm 1 mps 744 mmHg 50%
11:00 +28°C° 0 mm 1 mps 743 mmHg 45%
12:00 +30°C° 0 mm 1 mps 743 mmHg 40%
13:00 +30°C° 0 mm 1 mps 743 mmHg 39%
14:00 +31°C° 0 mm 1 mps 742 mmHg 38%
15:00 +31°C° 0 mm 1 mps 742 mmHg 37%
16:00 +30°C° 0 mm 1 mps 742 mmHg 42%
17:00 +29°C° 0 mm 1 mps 742 mmHg 47%
18:00 +28°C° 0 mm 1 mps 742 mmHg 52%
19:00 +26°C° 0 mm 1 mps 742 mmHg 56%
20:00 +25°C° 0 mm 1 mps 742 mmHg 59%
21:00 +23°C° 0 mm 1 mps 743 mmHg 62%
22:00 +22°C° 0 mm 1 mps 742 mmHg 66%
23:00 +21°C° 0 mm 1 mps 742 mmHg 70%

14 July, Tuesday

Time Temperature Precipitation Wind Pressure Humidity
00:00 +20°C° 0 mm 1 mps 742 mmHg 75%
01:00 +19°C° 0 mm 1 mps 742 mmHg 77%
02:00 +19°C° 0 mm 1 mps 742 mmHg 79%
03:00 +18°C° 0 mm 1 mps 742 mmHg 81%
04:00 +19°C° 0 mm 1 mps 742 mmHg 79%
05:00 +19°C° 0 mm 1 mps 742 mmHg 76%
06:00 +20°C° 0 mm 1 mps 743 mmHg 74%
07:00 +21°C° 0 mm 1 mps 743 mmHg 68%
08:00 +23°C° 0 mm 2 mps 743 mmHg 63%
09:00 +24°C° 0 mm 2 mps 743 mmHg 57%
10:00 +25°C° 0.1 mm 2 mps 743 mmHg 53%
11:00 +26°C° 0.1 mm 3 mps 743 mmHg 50%
12:00 +27°C° 0.1 mm 3 mps 743 mmHg 46%
13:00 +28°C° 0.1 mm 3 mps 743 mmHg 45%
14:00 +28°C° 0.1 mm 3 mps 743 mmHg 44%
15:00 +28°C° 0.1 mm 3 mps 743 mmHg 43%
16:00 +27°C° 0 mm 3 mps 743 mmHg 47%
17:00 +26°C° 0 mm 3 mps 743 mmHg 51%
18:00 +25°C° 0 mm 3 mps 743 mmHg 55%
19:00 +24°C° 0 mm 3 mps 744 mmHg 60%
20:00 +21°C° 0 mm 3 mps 744 mmHg 65%
21:00 +19°C° 0 mm 3 mps 745 mmHg 70%
22:00 +18°C° 0 mm 2 mps 745 mmHg 74%
23:00 +18°C° 0 mm 2 mps 745 mmHg 78%
Show more